Regional Weather Roundup
Issued by NWS

Home | Current Version | Previous Version | Text Only | Print | Product List | Glossary Off
Versions: 1 2 3 4 5 6 7 8 9 10 11 12 13 14 15 16 17 18 19 20 21 22 23 24 25 26 27 28 29 30 31 32 33 34 35 36 37 38 39 40 41 42 43 44 45 46 47 48 49 50

000
ASUS45 KCYS 281710
RWRWY

WYOMING REGIONAL WEATHER ROUNDUP
NATIONAL WEATHER SERVICE CHEYENNE WY
1000 AM MST SAT FEB 28 2015

NOTE:  "FAIR" INDICATES FEW OR NO CLOUDS BELOW 12,000 FEET
WITH NO SIGNIFICANT WEATHER AND/OR OBSTRUCTIONS TO VISIBILITY.

WYZ001-281800-
YELLOWSTONE NATIONAL PARK

CITY           SKY/WX    TMP DP  RH WIND       PRES   REMARKS
LK YELLOWSTONE   N/A      4  -2  76 CALM      29.82S
W YELLOWSTONE  NOT AVBL

$$
WYZ002>013-054>058-071-098>099-281800-
NORTHERN WYOMING

CITY           SKY/WX    TMP DP  RH WIND       PRES   REMARKS
JACKSON        NOT AVBL
CODY           CLOUDY    14  10  85 NE6       30.01S WCI   5
GREYBULL       CLOUDY    21   8  57 N8        30.07S WCI  11
WORLAND        PTSUNNY   20   9  62 N7        30.06S WCI  11
SHERIDAN       CLOUDY    16   8  71 NW6       30.11S WCI   7
BUFFALO        FAIR      14   6  70 N3        30.04S
GILLETTE       CLOUDY    15   7  70 NW9       30.07S WCI   3
HULETT         FLURRIES  14   5  67 NW7       30.08F WCI   4
NEWCASTLE      FAIR      19   5  53 NW18G26   30.06S WCI   4

$$
WYZ014>020-022>026-101>103-281800-
CENTRAL WYOMING

CITY           SKY/WX    TMP DP  RH WIND       PRES   REMARKS
BIG PINEY      CLOUDY    19  10  68 S3        29.81S
PINEDALE       FLURRIES  19  14  79 NW3       29.82S
DUBOIS         LGT SNOW  14   9  79 CALM      29.85S
LANDER         LGT SNOW  17  11  77 NE3       29.95R
RIVERTON       LGT SNOW  16   9  74 NE12      29.97R WCI   3
CASPER         CLOUDY    16   6  65 NE13      30.00F WCI   2
DOUGLAS        CLOUDY    17   8  67 N8        30.05S WCI   7

$$
WYZ021-027>030-104>119-281800-
SOUTHERN WYOMING

CITY           SKY/WX    TMP DP  RH WIND       PRES   REMARKS
EVANSTON       FAIR      20  14  77 NE20      29.73F WCI   4
FORT BRIDGER   CLOUDY    17  15  93 NE5       29.80S WCI  10
ROCK SPRINGS   CLOUDY    17  10  74 E17       29.82R WCI   1
DIXON          CLOUDY    31  13  47 CALM      29.81S
RAWLINS        CLOUDY    18   6  59 E12       29.84F WCI   5
SARATOGA       FAIR      18   9  68 CALM      29.82F
LARAMIE        FAIR      17   5  59 E5        29.82F WCI  10
CHEYENNE       FAIR      17   8  67 N10       29.93R WCI   5
TORRINGTON     FAIR      20   9  62 N9        30.05R WCI   9
PINE BLUFFS    FAIR      21  10  63 NE14G20   29.99R WCI   8

$$


USA.gov is the U.S. government's official web portal to all federal, state and local government web resources and services.